Tracking 28126 objects as of 2-Oct-2023
HD Live streaming from Space Station
objects crossing your sky now

STARLINK-2604

Track STARLINK-2604 now!
10-day predictions
STARLINK-2604 is classified as:


NORAD ID: 48374
Int'l Code: 2021-038X
Perigee: 553.3 km
Apogee: 555.3 km
Inclination: 53.1 °
Period: 95.6 minutes
Semi major axis: 6925 km
RCS: Unknown
Launch date: May 4, 2021
Source: United States (US)
Launch site: AIR FORCE EASTERN TEST RANGE (AFETR)
Your satellite tracking list
Your tracking list is empty




NASA's NSSDC Master Catalog

Two Line Element Set (TLE):
1 48374U 21038X   23274.70586323  .00009209  00000-0  63606-3 0  9996
2 48374  53.0568  26.8984 0001466  95.0655 265.0502 15.06415956133020
Source of the keplerian elements: AFSPC